sat.trackr.live / text

‹ back to catalog

STARLINK-1983

NORAD 47630 · 2021-012L

PAYLOAD ACTIVE UNKNOWN

§ Identity

Operator
Country
US
Launch date
2021-02-16
Launch site
AFETR
Launch vehicle
Mass (kg)
RCS (m²)

Purposes: comms

External: N2YO · Heavens-Above · Gunter

§ Orbital elements

Epoch: 2026-05-25T04:05:01.061088Z

Period
94.01 min
Inclination
53.1594°
Eccentricity
0.0001099
Mean motion
15.31738868 rev/d
Perigee alt
469.9 km
Apogee alt
471.4 km
Semi-major
6,848.8 km
B*
2.1949e-4
RAAN
53.8598°
Arg perigee
88.2398°
Mean anomaly
271.8729°
Rev number
29,199

§ Raw data

STARLINK-19831 47630U 21012L   26145.17015117  .00006460  00000+0  21949-3 0  99902 47630  53.1594  53.8598 0001099  88.2398 271.8729 15.31738868291990

JSON: /api/v1/satellites/47630 · /tle

For live sub-satellite position, see the globe view (requires WebGL).

§ Visibility from observer

Set your observer location to see the next 7 days of passes ≥ 10°. The values pass through the URL so the page stays shareable.

No JS? Fill the form by hand. The geolocation button needs JavaScript.